Notices

What's New in latest Release from April 7th, 2021:

- Updated Glossary, including Speed of Maximum Gust, and Total Hourly Precipitation

- Updated national and regional climate services offices contacts and prices information

- Addition of station inventory lists for 1981-2010, 1971-2000, and 1961-1990 Normals.

If you haven't already, please take our survey and provide feedback about our website: https://eccc.sondage-survey.ca/f/LanguageSelection.aspx?s=442ca660-fcf1-47c0-95a9-59707d6fd709

Hourly Data Report for April 12, 2017

KENORA A
ONTARIO

49°47'18.000" N
94°21'47.000" W
409.70 m
6034076
71850
YQK

Download Data

Hourly Data (April 2017)
Hourly Data Report for April 12, 2017
TIME
LST
Temp Definition
°C
Dew Point Definition
°C
Rel Hum Definition
%
Precip. Amount Definition
mm

Wind Dir Definition
10's deg

Wind Spd Definition
km/h
Visibility Definition
km
Stn Press Definition
kPa
Hmdx Definition


Wind Chill Definition


Weather Definition


00:00 3.3 -13.1 29   18 9 24.1 97.23     Mainly Clear
01:00 3.0 -14.3 27   18 7 24.1 97.23     LegendNANA
02:00 3.2 -14.1 27   19 5 24.1 97.24     LegendNANA
03:00 2.1 -14.2 29   21 5 24.1 97.25     Mostly Cloudy
04:00 2.2 -15.5 26   19 5 24.1 97.26     LegendNANA
05:00 1.7 -15.0 28   20 8 24.1 97.30     LegendNANA
06:00 0.9 -14.9 30   16 4 24.1 97.35     Mainly Clear
07:00 2.7 -12.8 31   36 2 24.1 97.40     LegendNANA
08:00 5.3 -10.5 31   21 4 24.1 97.44     LegendNANA
09:00 8.1 -7.6 32   36 5 24.1 97.47     Clear
10:00 9.2 -7.5 30   8 5 24.1 97.50     LegendNANA
11:00 10.7 -7.5 27   13 8 24.1 97.54     LegendNANA
12:00 11.5 -7.9 25   22 11 24.1 97.54     Mainly Clear
13:00 11.8 -8.7 23   33 6 24.1 97.54     LegendNANA
14:00 12.4 -9.3 21   29 14 24.1 97.53     LegendNANA
15:00 12.9 -7.2 24   33 11 24.1 97.51     Mainly Clear
16:00 12.9 -8.3 22   30 13 24.1 97.52     LegendNANA
17:00 13.0 -7.1 24   33 10 24.1 97.54     LegendNANA
18:00 12.3 -6.6 26   1 8 24.1 97.58     Mainly Clear
19:00 10.4 -6.4 30   2 4 24.1 97.61     LegendNANA
20:00 9.2 -6.6 32   4 5 24.1 97.66     LegendNANA
21:00 8.7 -7.1 32   7 9 24.1 97.69     Mainly Clear
22:00 7.6 -7.7 33   10 7 24.1 97.71     LegendNANA
23:00 4.3 -7.2 43   5 5 24.1 97.72     LegendNANA

Notes on Data Quality.

Legend

  • E = Estimated
  • M = Missing
  • NA = Not Available*
  • [empty] = Indicates an unobserved value
Date modified: